SWR175V EGLL-LSZH

Flight info

Callsign SWR175V
Flight time 1h 22m
Altitude 29000
Route DET L6 DVR UL9 KONAN DCT KOK DCT SISGA DCT RITAX DCT KRH M150 LAMGO/N0447F270 T721 SUL/N0434F250 T721 RILAX
Aircraft A319/M-SDE3FGHIRWY/LB1

Departure

Time 2026-05-05 19:12
Airport London Heathrow Airport (EGLL)

Arrival

Time 2026-05-05 20:34
Airport Zürich Airport (LSZH)
Time Latitude Longitude Altitude Speed Heading
2026-05-05 18:48 51.47038 -0.44670 85 ft 0 kts 269°
2026-05-05 18:53 51.47039 -0.44644 86 ft 3 kts 268°
2026-05-05 18:53 51.47040 -0.44614 87 ft 3 kts 268°
2026-05-05 18:54 51.47042 -0.44585 90 ft 3 kts 250°
2026-05-05 18:54 51.47053 -0.44563 89 ft 3 kts 189°
2026-05-05 18:54 51.47061 -0.44562 89 ft 0 kts 177°
2026-05-05 18:58 51.47060 -0.44562 89 ft 1 kts 177°
2026-05-05 18:58 51.47042 -0.44561 86 ft 4 kts 177°
2026-05-05 18:58 51.47004 -0.44558 85 ft 7 kts 177°
2026-05-05 18:59 51.46950 -0.44556 85 ft 9 kts 180°
2026-05-05 18:59 51.46880 -0.44556 85 ft 11 kts 180°
2026-05-05 18:59 51.46814 -0.44555 85 ft 6 kts 180°
2026-05-05 18:59 51.46789 -0.44556 85 ft 4 kts 180°
2026-05-05 19:00 51.46769 -0.44556 85 ft 1 kts 181°
2026-05-05 19:00 51.46766 -0.44556 85 ft 0 kts 181°
2026-05-05 19:00 51.46760 -0.44556 89 ft 3 kts 181°
2026-05-05 19:00 51.46713 -0.44557 85 ft 9 kts 180°
2026-05-05 19:01 51.46670 -0.44601 89 ft 8 kts 249°
2026-05-05 19:01 51.46665 -0.44695 89 ft 10 kts 270°
2026-05-05 19:01 51.46665 -0.44806 91 ft 10 kts 270°
2026-05-05 19:01 51.46665 -0.44926 89 ft 12 kts 270°
2026-05-05 19:02 51.46664 -0.45064 88 ft 13 kts 269°
2026-05-05 19:02 51.46664 -0.45224 87 ft 16 kts 270°
2026-05-05 19:02 51.46664 -0.45413 83 ft 18 kts 270°
2026-05-05 19:02 51.46662 -0.45630 82 ft 20 kts 269°
2026-05-05 19:03 51.46661 -0.45861 81 ft 21 kts 269°
2026-05-05 19:03 51.46660 -0.46094 83 ft 21 kts 270°
2026-05-05 19:03 51.46659 -0.46318 90 ft 19 kts 270°
2026-05-05 19:03 51.46659 -0.46533 89 ft 19 kts 270°
2026-05-05 19:04 51.46660 -0.46751 91 ft 20 kts 270°
2026-05-05 19:04 51.46659 -0.46982 89 ft 22 kts 270°
2026-05-05 19:04 51.46657 -0.47240 83 ft 25 kts 269°
2026-05-05 19:04 51.46655 -0.47510 80 ft 22 kts 269°
2026-05-05 19:05 51.46654 -0.47745 81 ft 16 kts 269°
2026-05-05 19:05 51.46654 -0.47866 82 ft 7 kts 269°
2026-05-05 19:05 51.46653 -0.47938 83 ft 6 kts 269°
2026-05-05 19:05 51.46653 -0.47996 84 ft 5 kts 269°
2026-05-05 19:06 51.46653 -0.48041 85 ft 3 kts 269°
2026-05-05 19:06 51.46653 -0.48058 85 ft 0 kts 269°
2026-05-05 19:08 51.46653 -0.48081 86 ft 4 kts 269°
2026-05-05 19:08 51.46653 -0.48126 86 ft 4 kts 271°
2026-05-05 19:08 51.46653 -0.48169 87 ft 4 kts 269°
2026-05-05 19:09 51.46644 -0.48206 90 ft 3 kts 232°
2026-05-05 19:09 51.46620 -0.48215 88 ft 5 kts 181°
2026-05-05 19:09 51.46616 -0.48215 87 ft 0 kts 181°
2026-05-05 19:10 51.46599 -0.48215 87 ft 6 kts 181°
2026-05-05 19:11 51.46541 -0.48215 86 ft 10 kts 179°
2026-05-05 19:11 51.46482 -0.48158 87 ft 11 kts 109°
2026-05-05 19:11 51.46482 -0.48041 84 ft 13 kts 90°
2026-05-05 19:11 51.46482 -0.47568 81 ft 89 kts 89°
2026-05-05 19:12 51.46499 -0.46096 100 ft 168 kts 88°
2026-05-05 19:12 51.46512 -0.44139 796 ft 178 kts 87°
2026-05-05 19:12 51.46515 -0.42124 1625 ft 195 kts 92°
2026-05-05 19:12 51.45916 -0.39937 2041 ft 237 kts 125°
2026-05-05 19:13 51.44826 -0.37754 2571 ft 257 kts 127°
2026-05-05 19:13 51.43891 -0.35314 3177 ft 258 kts 110°
2026-05-05 19:13 51.43389 -0.32547 3817 ft 260 kts 102°
2026-05-05 19:13 51.42960 -0.29713 4457 ft 263 kts 101°
2026-05-05 19:14 51.42551 -0.26869 5107 ft 265 kts 100°
2026-05-05 19:14 51.42153 -0.23965 5764 ft 271 kts 100°
2026-05-05 19:14 51.41754 -0.21004 5963 ft 273 kts 100°
2026-05-05 19:14 51.41354 -0.18038 5951 ft 272 kts 100°
2026-05-05 19:15 51.40954 -0.15081 5946 ft 272 kts 100°
2026-05-05 19:15 51.40549 -0.12115 5945 ft 272 kts 100°
2026-05-05 19:15 51.40140 -0.09148 5944 ft 272 kts 100°
2026-05-05 19:15 51.39730 -0.06184 5945 ft 272 kts 100°
2026-05-05 19:16 51.39319 -0.03234 5948 ft 272 kts 100°
2026-05-05 19:16 51.38908 -0.00276 5954 ft 272 kts 100°
2026-05-05 19:16 51.38501 0.02658 6094 ft 269 kts 100°
2026-05-05 19:16 51.38090 0.05615 6769 ft 275 kts 100°
2026-05-05 19:17 51.37672 0.08622 7474 ft 279 kts 100°
2026-05-05 19:17 51.37245 0.11685 8196 ft 282 kts 101°
2026-05-05 19:17 51.36812 0.14770 8927 ft 286 kts 101°
2026-05-05 19:17 51.36375 0.17887 9729 ft 289 kts 101°
2026-05-05 19:18 51.35952 0.21080 10492 ft 296 kts 99°
2026-05-05 19:18 51.35552 0.24358 11267 ft 305 kts 99°
2026-05-05 19:18 51.35157 0.27693 12051 ft 313 kts 99°
2026-05-05 19:18 51.34750 0.31156 12863 ft 320 kts 99°
2026-05-05 19:19 51.34329 0.34735 13709 ft 326 kts 100°
2026-05-05 19:19 51.33906 0.38288 14460 ft 331 kts 100°
2026-05-05 19:19 51.33466 0.41931 15227 ft 334 kts 100°
2026-05-05 19:19 51.33019 0.45605 16013 ft 337 kts 100°
2026-05-05 19:20 51.32566 0.49303 16973 ft 340 kts 99°
2026-05-05 19:20 51.32110 0.52978 17788 ft 341 kts 100°
2026-05-05 19:20 51.31648 0.56705 18594 ft 342 kts 99°
2026-05-05 19:20 51.31188 0.60429 19327 ft 342 kts 100°
2026-05-05 19:21 51.30728 0.64166 20080 ft 342 kts 99°
2026-05-05 19:21 51.30270 0.67897 20849 ft 342 kts 99°
2026-05-05 19:21 51.29810 0.71626 21639 ft 341 kts 100°
2026-05-05 19:21 51.29348 0.75342 22452 ft 339 kts 99°
2026-05-05 19:22 51.28889 0.79021 23288 ft 337 kts 100°
2026-05-05 19:22 51.28432 0.82669 24041 ft 333 kts 100°
2026-05-05 19:22 51.27984 0.86245 24761 ft 330 kts 101°
2026-05-05 19:22 51.27529 0.89850 25517 ft 325 kts 102°
2026-05-05 19:23 51.27092 0.93314 26273 ft 319 kts 102°
2026-05-05 19:23 51.26658 0.96754 27049 ft 313 kts 102°
2026-05-05 19:23 51.26231 1.00125 27873 ft 304 kts 103°
2026-05-05 19:23 51.25816 1.03400 28647 ft 299 kts 104°
2026-05-05 19:24 51.25395 1.06702 28894 ft 310 kts 104°
2026-05-05 19:24 51.24948 1.10171 28954 ft 327 kts 104°
2026-05-05 19:24 51.24476 1.13824 28946 ft 345 kts 104°
2026-05-05 19:24 51.23975 1.17690 28943 ft 363 kts 103°
2026-05-05 19:25 51.23453 1.21725 28942 ft 380 kts 104°
2026-05-05 19:25 51.22914 1.25907 28942 ft 387 kts 103°
2026-05-05 19:25 51.22364 1.30166 28943 ft 399 kts 103°
2026-05-05 19:25 51.21789 1.34586 28939 ft 414 kts 103°
2026-05-05 19:26 51.21118 1.39118 28939 ft 426 kts 109°
2026-05-05 19:26 51.20221 1.43693 28934 ft 439 kts 109°
2026-05-05 19:26 51.18275 1.52994 28934 ft 447 kts 110°
2026-05-05 19:27 51.16253 1.62392 28936 ft 449 kts 110°
2026-05-05 19:27 51.14249 1.71806 28931 ft 448 kts 110°
2026-05-05 19:28 51.12251 1.81228 28924 ft 449 kts 110°
2026-05-05 19:28 51.10248 1.90622 28910 ft 448 kts 110°
2026-05-05 19:29 51.08249 1.99979 28926 ft 445 kts 111°
2026-05-05 19:29 51.06259 2.09234 28927 ft 444 kts 110°
2026-05-05 19:30 51.04250 2.18515 28925 ft 443 kts 111°
2026-05-05 19:30 51.02247 2.27722 28908 ft 443 kts 111°
2026-05-05 19:31 51.00228 2.36961 28898 ft 442 kts 111°
2026-05-05 19:31 50.98199 2.46203 28897 ft 443 kts 111°
2026-05-05 19:32 50.96510 2.53872 28900 ft 442 kts 111°
2026-05-05 19:32 50.94147 2.64602 28896 ft 442 kts 111°
2026-05-05 19:33 50.92450 2.72243 28892 ft 442 kts 111°
2026-05-05 19:33 50.90394 2.81436 28894 ft 442 kts 111°
2026-05-05 19:34 50.88339 2.90619 28877 ft 442 kts 111°
2026-05-05 19:35 50.85252 3.04339 28874 ft 441 kts 111°
2026-05-05 19:35 50.83187 3.13479 28875 ft 441 kts 111°
2026-05-05 19:36 50.81104 3.22623 28871 ft 441 kts 111°
2026-05-05 19:36 50.79020 3.31736 28863 ft 440 kts 111°
2026-05-05 19:37 50.76938 3.40818 28872 ft 440 kts 111°
2026-05-05 19:37 50.74851 3.49890 28874 ft 439 kts 111°
2026-05-05 19:38 50.72755 3.58926 28873 ft 439 kts 111°
2026-05-05 19:38 50.70656 3.67921 28871 ft 438 kts 111°
2026-05-05 19:39 50.68550 3.76951 28857 ft 438 kts 111°
2026-05-05 19:39 50.66446 3.85962 28860 ft 438 kts 111°
2026-05-05 19:40 50.64339 3.94941 28864 ft 438 kts 111°
2026-05-05 19:40 50.62212 4.03940 28860 ft 438 kts 111°
2026-05-05 19:41 50.59856 4.12801 28859 ft 437 kts 116°
2026-05-05 19:41 50.57226 4.21363 28861 ft 436 kts 117°
2026-05-05 19:42 50.54540 4.29948 28862 ft 436 kts 116°
2026-05-05 19:42 50.51942 4.38486 28863 ft 435 kts 116°
2026-05-05 19:43 50.49348 4.47121 28864 ft 435 kts 116°
2026-05-05 19:43 50.46753 4.55711 28863 ft 435 kts 116°
2026-05-05 19:44 50.44157 4.64243 28855 ft 434 kts 116°
2026-05-05 19:44 50.41538 4.72808 28851 ft 434 kts 116°
2026-05-05 19:45 50.38938 4.81284 28852 ft 433 kts 116°
2026-05-05 19:45 50.36320 4.89793 28851 ft 433 kts 116°
2026-05-05 19:46 50.33707 4.98267 28842 ft 433 kts 116°
2026-05-05 19:46 50.31074 5.06759 28843 ft 433 kts 117°
2026-05-05 19:47 50.28435 5.15227 28834 ft 433 kts 116°
2026-05-05 19:47 50.25790 5.23703 28827 ft 433 kts 116°
2026-05-05 19:48 50.23152 5.32145 28829 ft 433 kts 116°
2026-05-05 19:48 50.20495 5.40602 28826 ft 433 kts 116°
2026-05-05 19:49 50.17835 5.49054 28822 ft 434 kts 116°
2026-05-05 19:49 50.15158 5.57508 28808 ft 434 kts 116°
2026-05-05 19:50 50.12489 5.65907 28813 ft 435 kts 116°
2026-05-05 19:50 50.09781 5.74434 28814 ft 436 kts 116°
2026-05-05 19:51 50.07066 5.82801 28809 ft 436 kts 118°
2026-05-05 19:51 50.04080 5.91005 28821 ft 436 kts 120°
2026-05-05 19:52 50.00974 5.99094 28810 ft 436 kts 121°
2026-05-05 19:52 49.97885 6.07224 28805 ft 436 kts 120°
2026-05-05 19:53 49.94834 6.15367 28801 ft 436 kts 120°
2026-05-05 19:53 49.91792 6.23517 28798 ft 436 kts 120°
2026-05-05 19:54 49.88758 6.31604 28799 ft 436 kts 120°
2026-05-05 19:54 49.85682 6.39727 28784 ft 436 kts 121°
2026-05-05 19:55 49.82597 6.47846 28783 ft 437 kts 121°
2026-05-05 19:55 49.79505 6.55943 28787 ft 437 kts 121°
2026-05-05 19:56 49.76414 6.64037 28792 ft 437 kts 121°
2026-05-05 19:56 49.73341 6.72072 28786 ft 436 kts 121°
2026-05-05 19:57 49.70239 6.80154 28770 ft 437 kts 121°
2026-05-05 19:57 49.67127 6.88230 28790 ft 437 kts 122°
2026-05-05 19:58 49.64026 6.96248 28792 ft 437 kts 122°
2026-05-05 19:58 49.60900 7.04321 28808 ft 437 kts 122°
2026-05-05 19:59 49.57775 7.12364 28814 ft 438 kts 122°
2026-05-05 19:59 49.54628 7.20423 28807 ft 438 kts 122°
2026-05-05 20:00 49.51491 7.28434 28830 ft 438 kts 122°
2026-05-05 20:00 49.48350 7.36458 28811 ft 438 kts 122°
2026-05-05 20:01 49.45199 7.44483 28818 ft 438 kts 122°
2026-05-05 20:01 49.42050 7.52443 28807 ft 438 kts 122°
2026-05-05 20:02 49.38880 7.60445 28786 ft 438 kts 122°
2026-05-05 20:02 49.35706 7.68432 28785 ft 439 kts 122°
2026-05-05 20:03 49.32520 7.76421 28796 ft 439 kts 123°
2026-05-05 20:03 49.29349 7.84370 28800 ft 439 kts 123°
2026-05-05 20:04 49.26155 7.92365 28810 ft 439 kts 123°
2026-05-05 20:04 49.22947 8.00327 28791 ft 440 kts 123°
2026-05-05 20:05 49.19726 8.08307 28798 ft 441 kts 123°
2026-05-05 20:05 49.16494 8.16313 28803 ft 442 kts 123°
2026-05-05 20:06 49.13273 8.24251 28813 ft 443 kts 123°
2026-05-05 20:06 49.10010 8.32252 28807 ft 443 kts 123°
2026-05-05 20:07 49.06754 8.40222 28802 ft 442 kts 123°
2026-05-05 20:07 49.03497 8.48196 28814 ft 442 kts 123°
2026-05-05 20:08 49.00232 8.56155 28811 ft 443 kts 123°
2026-05-05 20:08 48.96503 8.63513 28820 ft 441 kts 132°
2026-05-05 20:09 48.92544 8.70661 28819 ft 441 kts 134°
2026-05-05 20:09 48.90219 8.73680 28811 ft 438 kts 149°
2026-05-05 20:09 48.87483 8.75640 28823 ft 435 kts 163°
2026-05-05 20:09 48.84510 8.76441 28812 ft 434 kts 178°
2026-05-05 20:10 48.81503 8.76054 28824 ft 433 kts 190°
2026-05-05 20:10 48.75596 8.74451 28822 ft 434 kts 190°
2026-05-05 20:11 48.69645 8.72840 28833 ft 434 kts 191°
2026-05-05 20:11 48.63690 8.71250 28841 ft 434 kts 190°
2026-05-05 20:12 48.57776 8.69681 28840 ft 433 kts 191°
2026-05-05 20:12 48.51827 8.68103 28842 ft 433 kts 191°
2026-05-05 20:13 48.45873 8.66530 28849 ft 433 kts 190°
2026-05-05 20:13 48.39932 8.64964 28445 ft 431 kts 190°
2026-05-05 20:13 48.37018 8.64186 28172 ft 430 kts 191°
2026-05-05 20:14 48.34081 8.63342 27905 ft 428 kts 192°
2026-05-05 20:14 48.31172 8.62456 27644 ft 426 kts 192°
2026-05-05 20:14 48.28287 8.61556 27378 ft 423 kts 192°
2026-05-05 20:14 48.25401 8.60654 27113 ft 421 kts 192°
2026-05-05 20:15 48.22530 8.59768 26851 ft 419 kts 192°
2026-05-05 20:15 48.19673 8.58899 26592 ft 418 kts 192°
2026-05-05 20:15 48.16858 8.58053 26338 ft 416 kts 192°
2026-05-05 20:15 48.14014 8.57204 26043 ft 415 kts 192°
2026-05-05 20:16 48.11195 8.56368 25532 ft 411 kts 192°
2026-05-05 20:16 48.08395 8.55539 25022 ft 407 kts 192°
2026-05-05 20:16 48.05621 8.54719 24246 ft 403 kts 192°
2026-05-05 20:16 48.02890 8.53915 23471 ft 397 kts 192°
2026-05-05 20:17 48.00221 8.53128 22573 ft 392 kts 192°
2026-05-05 20:17 47.98452 8.52623 21981 ft 389 kts 191°
2026-05-05 20:17 47.94865 8.52186 20816 ft 387 kts 173°
2026-05-05 20:17 47.92366 8.53566 19989 ft 391 kts 150°
2026-05-05 20:18 47.90276 8.56169 19186 ft 393 kts 140°
2026-05-05 20:18 47.88252 8.58893 18388 ft 390 kts 142°
2026-05-05 20:18 47.86878 8.60631 17822 ft 388 kts 143°
2026-05-05 20:18 47.84792 8.63161 16968 ft 385 kts 144°
2026-05-05 20:19 47.82701 8.65628 16183 ft 380 kts 145°
2026-05-05 20:19 47.79967 8.68839 15186 ft 375 kts 145°
2026-05-05 20:19 47.77935 8.71245 14444 ft 370 kts 145°
2026-05-05 20:19 47.76607 8.72831 13957 ft 368 kts 144°
2026-05-05 20:20 47.74622 8.75218 13069 ft 366 kts 144°
2026-05-05 20:20 47.71995 8.78392 11687 ft 368 kts 145°
2026-05-05 20:20 47.70673 8.79992 11013 ft 368 kts 145°
2026-05-05 20:20 47.68692 8.82389 10039 ft 366 kts 145°
2026-05-05 20:21 47.66720 8.84768 8985 ft 364 kts 144°
2026-05-05 20:21 47.64764 8.87130 8152 ft 356 kts 144°
2026-05-05 20:21 47.62916 8.89418 7775 ft 337 kts 140°
2026-05-05 20:21 47.61489 8.92070 7342 ft 328 kts 123°
2026-05-05 20:22 47.60433 8.95052 6896 ft 318 kts 120°
2026-05-05 20:22 47.59447 8.97882 6481 ft 308 kts 121°
2026-05-05 20:22 47.58490 9.00627 6367 ft 288 kts 121°
2026-05-05 20:22 47.57601 9.03178 6265 ft 269 kts 121°
2026-05-05 20:23 47.56775 9.05572 6150 ft 252 kts 121°
2026-05-05 20:23 47.56008 9.07814 6055 ft 244 kts 123°
2026-05-05 20:23 47.54944 9.09696 5956 ft 234 kts 149°
2026-05-05 20:23 47.53517 9.10684 5848 ft 224 kts 174°
2026-05-05 20:24 47.52001 9.10702 5787 ft 215 kts 197°
2026-05-05 20:24 47.50687 9.09892 5786 ft 196 kts 217°
2026-05-05 20:24 47.49752 9.08571 5718 ft 179 kts 236°
2026-05-05 20:24 47.49193 9.06949 5679 ft 176 kts 249°
2026-05-05 20:25 47.48732 9.05282 5624 ft 174 kts 248°
2026-05-05 20:25 47.48283 9.03675 5570 ft 165 kts 248°
2026-05-05 20:25 47.47860 9.02164 5517 ft 155 kts 248°
2026-05-05 20:25 47.47454 9.00708 5456 ft 152 kts 248°
2026-05-05 20:26 47.47058 8.99298 5415 ft 145 kts 248°
2026-05-05 20:26 47.46673 8.97927 5361 ft 143 kts 248°
2026-05-05 20:26 47.46289 8.96561 5317 ft 144 kts 248°
2026-05-05 20:26 47.45907 8.95201 5267 ft 143 kts 248°
2026-05-05 20:27 47.45518 8.93821 5217 ft 147 kts 248°
2026-05-05 20:27 47.45135 8.92454 5098 ft 147 kts 249°
2026-05-05 20:27 47.44747 8.91067 4903 ft 145 kts 249°
2026-05-05 20:27 47.44361 8.89699 4700 ft 144 kts 249°
2026-05-05 20:28 47.43978 8.88339 4543 ft 141 kts 249°
2026-05-05 20:28 47.43642 8.87009 4383 ft 135 kts 258°
2026-05-05 20:28 47.43584 8.85642 4234 ft 132 kts 275°
2026-05-05 20:28 47.43690 8.84294 4081 ft 131 kts 275°
2026-05-05 20:29 47.43787 8.82982 3986 ft 131 kts 275°
2026-05-05 20:29 47.43887 8.81640 3927 ft 131 kts 275°
2026-05-05 20:29 47.43985 8.80297 3922 ft 132 kts 274°
2026-05-05 20:29 47.44083 8.78947 3920 ft 131 kts 274°
2026-05-05 20:30 47.44182 8.77583 3921 ft 136 kts 274°
2026-05-05 20:30 47.44283 8.76196 3927 ft 135 kts 273°
2026-05-05 20:30 47.44382 8.74837 3922 ft 131 kts 272°
2026-05-05 20:30 47.44479 8.73513 3918 ft 128 kts 272°
2026-05-05 20:31 47.44572 8.72193 3737 ft 128 kts 272°
2026-05-05 20:31 47.44663 8.70917 3534 ft 123 kts 272°
2026-05-05 20:31 47.44753 8.69667 3342 ft 121 kts 272°
2026-05-05 20:31 47.44841 8.68439 3166 ft 121 kts 272°
2026-05-05 20:32 47.44931 8.67197 2980 ft 121 kts 272°
2026-05-05 20:32 47.45021 8.65947 2799 ft 123 kts 273°
2026-05-05 20:32 47.45111 8.64692 2619 ft 124 kts 273°
2026-05-05 20:32 47.45201 8.63433 2429 ft 125 kts 273°
2026-05-05 20:33 47.45294 8.62151 2229 ft 125 kts 272°
2026-05-05 20:33 47.45385 8.60876 2025 ft 126 kts 274°
2026-05-05 20:33 47.45478 8.59580 1841 ft 127 kts 273°
2026-05-05 20:33 47.45571 8.58274 1653 ft 128 kts 273°
2026-05-05 20:34 47.45664 8.56980 1466 ft 127 kts 272°
2026-05-05 20:34 47.45755 8.55753 1407 ft 113 kts 276°
2026-05-05 20:34 47.45810 8.55041 1393 ft 45 kts 275°
2026-05-05 20:34 47.45829 8.54658 1392 ft 30 kts 274°
2026-05-05 20:35 47.45792 8.54390 1387 ft 21 kts 246°
2026-05-05 20:35 47.45765 8.54305 1388 ft 0 kts 246°
2026-05-05 20:35 47.45764 8.54301 1388 ft 2 kts 246°
2026-05-05 20:35 47.45754 8.54268 1385 ft 5 kts 241°
2026-05-05 20:36 47.45720 8.54221 1383 ft 8 kts 207°
2026-05-05 20:36 47.45658 8.54216 1382 ft 10 kts 159°
2026-05-05 20:36 47.45614 8.54279 1386 ft 9 kts 111°
2026-05-05 20:36 47.45593 8.54361 1387 ft 9 kts 112°
2026-05-05 20:37 47.45576 8.54444 1385 ft 9 kts 107°
2026-05-05 20:37 47.45556 8.54528 1388 ft 9 kts 110°
2026-05-05 20:37 47.45539 8.54614 1389 ft 9 kts 108°
2026-05-05 20:37 47.45519 8.54700 1391 ft 9 kts 108°
2026-05-05 20:38 47.45499 8.54796 1396 ft 10 kts 107°
2026-05-05 20:38 47.45491 8.54830 1392 ft 0 kts 109°
2026-05-05 20:42 47.45491 8.54831 1392 ft 0 kts 109°
2026-05-05 20:42 47.45489 8.54840 1394 ft 1 kts 109°
2026-05-05 20:42 47.45485 8.54856 1396 ft 2 kts 110°
2026-05-05 20:43 47.45478 8.54880 1392 ft 3 kts 111°
2026-05-05 20:43 47.45469 8.54918 1397 ft 5 kts 110°
2026-05-05 20:43 47.45455 8.54974 1397 ft 6 kts 107°
2026-05-05 20:43 47.45439 8.55042 1400 ft 7 kts 110°
2026-05-05 20:44 47.45421 8.55126 1398 ft 10 kts 107°
2026-05-05 20:44 47.45399 8.55226 1402 ft 11 kts 109°
2026-05-05 20:44 47.45364 8.55326 1404 ft 11 kts 119°
2026-05-05 20:44 47.45318 8.55423 1404 ft 12 kts 143°
2026-05-05 20:45 47.45148 8.55543 1406 ft 16 kts 156°
2026-05-05 20:45 47.45044 8.55615 1403 ft 18 kts 156°
2026-05-05 20:45 47.44962 8.55704 1399 ft 11 kts 105°
2026-05-05 20:46 47.44952 8.55821 1401 ft 11 kts 91°
2026-05-05 20:46 47.44986 8.55850 1409 ft 3 kts
2026-05-05 20:46 47.44993 8.55851 1408 ft 1 kts
2026-05-05 20:46 47.45015 8.55854 1407 ft 4 kts
2026-05-05 20:47 47.45037 8.55858 1407 ft 0 kts
2026-05-05 20:47 47.45038 8.55858 1407 ft 1 kts
2026-05-05 20:47 47.45045 8.55858 1407 ft 0 kts